Location: El Atico
(3.0014°N, 75.4378°W)
Time: 12:42:57
(UTC+00:00)

Cosmos 1437 Rocket - Pass Details

Date: 09 December 2025
Orbit: 446 x 484 km, 81.2° (Epoch: 25 January)

Event Time Altitude Azimuth Distance (km) Brightness Sun altitude
Rises 23:33:43 0° 154° (SSE) 2,539 6.2 -10.2°
Reaches altitude 10° 23:36:39 10° 128° (SE) 1,647 5.0 -10.9°
Maximum altitude 23:38:35 14° 95° (E) 1,411 4.4 -11.3°
Enters shadow 23:38:38 14° 94° (E) 1,411 4.4 -11.3°
